Bowling Green, Kentucky, United States (42101)
Lat: 36.99N, Lon: 86.44W
Wx Zone: KYZ071
Local Info
Past Weather Observations for Sunday, July 26, 2015

NOTE: This archive is for the closest National Weather Service station to Bowling Green. Information may differ from the station used for current weather conditions.

Click here for Long-term Archive

Time Weather Temperature Dewpoint Humidity Pressure Winds Precip Visibility
23:55
Partly Cloudy
Fog And Mist
75°F / 24°C 75°F / 24°C 100% 29.98 in
(1015 mb)
Calm - 4SM
23:35
Mostly Cloudy
Fog And Mist
75°F / 24°C 75°F / 24°C 100% 29.98 in
(1015 mb)
Calm - 5SM
23:15
Partly Cloudy
75°F / 24°C 73°F / 23°C 94% 29.98 in
(1015 mb)
Calm - 7SM
22:55
Clear
75°F / 24°C 73°F / 23°C 94% 29.98 in
(1015 mb)
Calm - 7SM
22:35
Clear
Fog And Mist
75°F / 24°C 73°F / 23°C 94% 29.98 in
(1015 mb)
Calm - 5SM
22:15
Clear
Fog And Mist
75°F / 24°C 75°F / 24°C 100% 29.98 in
(1015 mb)
Calm - 5SM
21:55
Clear
Fog And Mist
75°F / 24°C 73°F / 23°C 94% 29.98 in
(1015 mb)
Calm - 5SM
21:35
Clear
Fog And Mist
75°F / 24°C 73°F / 23°C 94% 29.98 in
(1015 mb)
Calm - 5SM
21:15
Clear
75°F / 24°C 73°F / 23°C 94% 29.98 in
(1015 mb)
Calm - 7SM
20:55
Clear
75°F / 24°C 75°F / 24°C 100% 29.98 in
(1015 mb)
Calm - 7SM
20:35
Clear
75°F / 24°C 75°F / 24°C 100% 29.98 in
(1015 mb)
Calm - 7SM
20:15
Clear
77°F / 25°C 73°F / 23°C 89% 29.98 in
(1015 mb)
Calm - 7SM
19:55
Clear
77°F / 25°C 72°F / 22°C 83% 29.98 in
(1015 mb)
Calm - 7SM
19:35
Clear
77°F / 25°C 72°F / 22°C 83% 29.95 in
(1014 mb)
Calm - 7SM
19:15
Clear
79°F / 26°C 72°F / 22°C 79% 29.95 in
(1014 mb)
Calm - 7SM
18:55
Clear
79°F / 26°C 73°F / 23°C 84% 29.95 in
(1014 mb)
Calm - 7SM
18:35
Clear
82°F / 28°C 72°F / 22°C 70% 29.95 in
(1014 mb)
Calm - 10SM
18:15
Clear
82°F / 28°C 73°F / 23°C 74% 29.95 in
(1014 mb)
Calm - 10SM
17:55
Clear
82°F / 28°C 72°F / 22°C 70% 29.95 in
(1014 mb)
Calm - 10SM
17:35
Clear
84°F / 29°C 70°F / 21°C 62% 29.95 in
(1014 mb)
Calm - 10SM
17:15
Clear
86°F / 30°C 70°F / 21°C 59% 29.95 in
(1014 mb)
Calm - 10SM
16:55
Clear
86°F / 30°C 68°F / 20°C 55% 29.95 in
(1014 mb)
S 3.5 mph
(S 6 kph)
- 10SM
16:35
Clear
90°F / 32°C 70°F / 21°C 52% 29.95 in
(1014 mb)
S 3.5 mph
(S 6 kph)
- 10SM
16:15
Clear
90°F / 32°C 68°F / 20°C 49% 29.95 in
(1014 mb)
SW 4.6 mph
(SW 7 kph)
- 10SM
15:55
Clear
90°F / 32°C 68°F / 20°C 49% 29.95 in
(1014 mb)
SSE 4.6 mph
(SSE 7 kph)
- 10SM
15:35
Clear
90°F / 32°C 68°F / 20°C 49% 29.98 in
(1015 mb)
SW 4.6 mph
(SW 7 kph)
- 10SM
15:15
Clear
90°F / 32°C 68°F / 20°C 49% 29.98 in
(1015 mb)
SW 4.6 mph
(SW 7 kph)
- 10SM
14:55
Partly Cloudy
90°F / 32°C 68°F / 20°C 49% 29.98 in
(1015 mb)
W 3.5 mph
(W 6 kph)
- 10SM
14:35
Partly Cloudy
90°F / 32°C 68°F / 20°C 49% 29.98 in
(1015 mb)
Calm - 10SM
14:15
Partly Cloudy
90°F / 32°C 66°F / 19°C 46% 30.01 in
(1016 mb)
SSW 4.6 mph
(SSW 7 kph)
- 10SM
13:55
Partly Cloudy
90°F / 32°C 68°F / 20°C 49% 30.01 in
(1016 mb)
SSW 3.5 mph
(SSW 6 kph)
- 10SM
13:35
Clear
88°F / 31°C 66°F / 19°C 49% 30.01 in
(1016 mb)
NW 5.8 mph
(NW 9 kph)
- 10SM
13:15
Clear
88°F / 31°C 68°F / 20°C 52% 30.01 in
(1016 mb)
NNW 5.8 mph
(NNW 9 kph)
- 10SM
12:55
Clear
88°F / 31°C 68°F / 20°C 52% 30.01 in
(1016 mb)
Calm - 10SM
12:35
Partly Cloudy
88°F / 31°C 70°F / 21°C 55% 30.01 in
(1016 mb)
Calm - 10SM
12:15
Mostly Cloudy
86°F / 30°C 70°F / 21°C 59% 30.01 in
(1016 mb)
NW 3.5 mph
(NW 6 kph)
- 10SM
11:55
Mostly Cloudy
88°F / 31°C 68°F / 20°C 52% 30.01 in
(1016 mb)
NW 3.5 mph
(NW 6 kph)
- 10SM
11:35
Mostly Cloudy
N/A N/A N/A 30.01 in
(1016 mb)
Calm - 10SM
11:15
Mostly Cloudy
86°F / 30°C 70°F / 21°C 59% 30.01 in
(1016 mb)
SSW 3.5 mph
(SSW 6 kph)
- 10SM
10:55
Partly Cloudy
86°F / 30°C 70°F / 21°C 59% 30.01 in
(1016 mb)
Calm - 10SM
10:35
Clear
N/A N/A N/A 30.04 in
(1017 mb)
WNW 4.6 mph
(WNW 7 kph)
- 10SM
10:15
Clear
N/A N/A N/A 30.01 in
(1016 mb)
Calm - 10SM
09:55
Partly Cloudy
84°F / 29°C 70°F / 21°C 62% 30.01 in
(1016 mb)
NW 4.6 mph
(NW 7 kph)
- 10SM
09:35
Clear
N/A N/A N/A 30.01 in
(1016 mb)
Calm - 10SM
09:15
Clear
N/A N/A N/A 30.01 in
(1016 mb)
Calm - 10SM
08:55
Clear
82°F / 28°C 68°F / 20°C 62% 30.01 in
(1016 mb)
SW 3.5 mph
(SW 6 kph)
- 10SM
08:35
Clear
82°F / 28°C 70°F / 21°C 66% 30.01 in
(1016 mb)
Calm - 10SM
08:15
Clear
81°F / 27°C 70°F / 21°C 70% 30.01 in
(1016 mb)
Calm - 10SM
07:55
Clear
N/A N/A N/A 30.01 in
(1016 mb)
SW 3.5 mph
(SW 6 kph)
- 10SM
07:35
Clear
79°F / 26°C 68°F / 20°C 70% 30.01 in
(1016 mb)
Calm - 10SM
07:15
Clear
77°F / 25°C 68°F / 20°C 74% 30.01 in
(1016 mb)
Calm - 10SM
06:55
Clear
N/A N/A N/A 30.01 in
(1016 mb)
Calm - 10SM
06:35
Clear
N/A N/A N/A 30.01 in
(1016 mb)
Calm - 10SM
06:15
Clear
Fog And Mist
72°F / 22°C 70°F / 21°C 94% 30.01 in
(1016 mb)
Calm - 5SM
05:55
Clear
Fog And Mist
70°F / 21°C 70°F / 21°C 100% 29.98 in
(1015 mb)
Calm - 4SM
05:35
Clear
Fog And Mist
68°F / 20°C 68°F / 20°C 100% 29.98 in
(1015 mb)
Calm - 2 1/2SM
05:15
Clear
Fog And Mist
68°F / 20°C 68°F / 20°C 100% 29.98 in
(1015 mb)
Calm - 2SM
04:55
Clear
Fog And Mist
66°F / 19°C 66°F / 19°C 100% 29.98 in
(1015 mb)
Calm - 2SM
04:35
Clear
Fog And Mist
66°F / 19°C 66°F / 19°C 100% 29.98 in
(1015 mb)
Calm - 4SM
04:15
Clear
Fog And Mist
68°F / 20°C 68°F / 20°C 100% 29.98 in
(1015 mb)
Calm - 5SM
03:55
Clear
Fog And Mist
68°F / 20°C 68°F / 20°C 100% 29.98 in
(1015 mb)
E 3.5 mph
(E 6 kph)
- 3SM
03:35
Clear
Fog And Mist
68°F / 20°C 68°F / 20°C 100% 29.98 in
(1015 mb)
Calm - 3SM
03:15
Clear
Fog And Mist
66°F / 19°C 66°F / 19°C 100% 29.98 in
(1015 mb)
Calm - 2 1/2SM
02:55
Clear
Fog And Mist
68°F / 20°C 68°F / 20°C 100% 29.98 in
(1015 mb)
Calm - 3SM
02:35
Clear
Fog And Mist
68°F / 20°C 68°F / 20°C 100% 29.98 in
(1015 mb)
Calm - 2 1/2SM
02:15
Clear
Fog And Mist
68°F / 20°C 68°F / 20°C 100% 29.98 in
(1015 mb)
Calm - 3SM
01:55
Clear
Fog And Mist
68°F / 20°C 68°F / 20°C 100% 29.98 in
(1015 mb)
Calm - 5SM
01:35
Clear
Fog And Mist
68°F / 20°C 68°F / 20°C 100% 29.98 in
(1015 mb)
Calm - 4SM
01:15
Clear
Fog And Mist
68°F / 20°C 68°F / 20°C 100% 29.98 in
(1015 mb)
Calm - 5SM
00:55
Clear
Fog And Mist
68°F / 20°C 68°F / 20°C 100% 29.98 in
(1015 mb)
Calm - 5SM
00:35
Clear
Fog And Mist
70°F / 21°C 70°F / 21°C 100% 29.98 in
(1015 mb)
Calm - 4SM
00:15
Clear
70°F / 21°C 70°F / 21°C 100% 29.98 in
(1015 mb)
Calm - 7SM
Time Weather Temperature Dewpoint Humidity Pressure Winds Precip Visibility


Weather for websites

WeatherForYou.com, LLC is not responsible for any damages or problems caused by this service. Current weather conditions are obtained from the closest station including government and personal stations which may have varying degrees of accuracy. Weather forecasts are derived from the NOAA NDFD. Like all things, this site belongs to Jesus Christ... He just trusts us to maintain it. If you have any questions or comments email webmaster@weatherforyou.com

Copyright © 2015, WeatherForYou.com LLC. All rights reserved.